Location: Newark
(34.0131°N, 4.3314°W)
Time: 06:41:31
(UTC+00:00)

Transit 2A Rocket - Pass Details

Date: 27 October 2019
Orbit: 594 x 909 km, 66.7° (Epoch: 11 November)

Event Time Altitude Azimuth Distance (km) Brightness Sun altitude
Rises 14:02:40 0° 307° (NW) 2,844 8.0 35.0°
Reaches altitude 10° 14:06:17 10° 275° (W) 1,965 7.7 34.5°
Maximum altitude 14:07:52 12° 254° (WSW) 1,864 8.0 34.3°
Drops below altitude 10° 14:09:29 10° 232° (SW) 1,999 8.5 34.1°
Sets 14:13:16 0° 201° (SSW) 2,965 9.0 33.6°
